NOAA 16 DEB, 41074

Orbit data source: Space-Track

NOAA 16 DEB, 41074 is space debris in SSO originally from a launch on Thu, 21 Sep 2000 UTC launched from the Air Force Western Test Range (AFWTR). Debris objects in space refer to the collection of defunct objects orbiting the Earth. Examples of debris include non-operational satellites, rocket bodies, and fragments generated from explosions, collisions, or faulty payload assembly.

Loading next visibility...
Identifier
41074, 2000-055AH
Orbit
SSO
Country
Flag of USUS
Related business
Manufacturer
Unknown
Mission
Spacecraft
Bus & Motor
Unknown
Mass
Unknown
Launch date (UTC)
2000-09-21 (26 years ago)
Launch vehicle
Unknown
Launch site
Air Force Western Test Range (AFWTR)
Object type
Payload
Rocket body
Debris
Shape & HBR
Unknown shape, 0.1 m
Radar Cross Section
Medium (>0.1 m² and <1 m²)

Expand to show TLE details & history
Last TLE update: 13 hours ago

TLE from 13 hours ago
0 NOAA 16 DEB
1 41074U 00055AH  26266.81673555  .00001243  00000-0  33803-3 0  9998
2 41074  98.8766 104.8312 0081905 275.8107  83.3751 14.47509931567822
Epoch: 2026-09-23T19:36Z
TLE epoch observation values (Epoch: 2026-09-23T19:36:05.951Z)
Latitude
-0.00005°
Longitude
168.14399°
Altitude
730.49 km
Speed
7.493 km/s
True Right ascension
06h 59m 19s
True Declination
0° 00' 00"
Sunlit
Object was in daylight at epoch
Visualization orbit readout
Latitude
Unknown
Longitude
Unknown
Altitude
Unknown
Speed
Unknown
Apparent Right ascension
Unknown
Apparent Declination
Unknown
Sunlit
N/A
Visualization observer readout
Local Sidereal Time
01:21:15
Azimuth
Unknown
Elevation
Unknown
Doppler factor
Unknown
Orbital elements
Apogee altitude
789.15 km
Perigee altitude
672.696 km
Semi-major axis
7,109.06 km
Eccentricity
0.00819
Inclination
98.8766°
RAAN
104.8312°
Arg. of periapsis
275.8107°
True anomaly
84.30846°
Mean anomaly
83.3751°
Eccentric anomaly
83.84167°
Mean motion
3.62097 °/min
Orbital period
99.42 mins
BSTAR
0.00033803
Loading maneuver chart data...
Computing Atmospheric mass density...
Loading historical data...
Loading historical data...
Loading historical data...
Loading historical data...
Loading historical data...
Loading historical data...
Loading historical data...

Documentation

Showing up to 5 results
|